Time,TemperatureF,DewpointF,PressureIn,WindDirection,WindDirectionDegrees,WindSpeedMPH,WindSpeedGustMPH,Humidity,HourlyPrecipIn,Conditions,Clouds,dailyrainin,SoftwareType,DateUTC
2013-06-01 00:01:00,70.0,66.6,29.94,North,-999,0.0,-999.0,89,-99.99,,,-99.99,Acu-Link.com,2013-06-01 04:01:00,
2013-06-01 00:16:00,69.7,66.6,29.94,North,-999,0.0,-999.0,90,-99.99,,,-99.99,Acu-Link.com,2013-06-01 04:16:00,
2013-06-01 00:31:00,69.3,66.2,29.94,North,-999,0.0,-999.0,90,-99.99,,,-99.99,Acu-Link.com,2013-06-01 04:31:00,
2013-06-01 00:46:00,68.8,66.1,29.94,North,-999,0.0,-999.0,91,-99.99,,,-99.99,Acu-Link.com,2013-06-01 04:46:00,
2013-06-01 01:02:00,68.7,66.0,29.94,North,-999,0.0,-999.0,91,-99.99,,,-99.99,Acu-Link.com,2013-06-01 05:02:00,
2013-06-01 01:17:00,68.4,66.0,29.93,North,-999,0.0,-999.0,92,-99.99,,,-99.99,Acu-Link.com,2013-06-01 05:17:00,
2013-06-01 01:32:00,68.3,65.9,29.93,North,-999,0.0,-999.0,92,-99.99,,,-99.99,Acu-Link.com,2013-06-01 05:32:00,
2013-06-01 01:47:00,68.0,65.6,29.93,North,-999,0.0,-999.0,92,-99.99,,,-99.99,Acu-Link.com,2013-06-01 05:47:00,
2013-06-01 02:03:00,67.8,66.0,29.93,North,-999,0.0,-999.0,94,-99.99,,,-99.99,Acu-Link.com,2013-06-01 06:03:00,
2013-06-01 02:18:00,67.6,65.8,29.93,North,-999,1.6,-999.0,94,-99.99,,,-99.99,Acu-Link.com,2013-06-01 06:18:00,
2013-06-01 02:34:00,67.1,65.3,29.92,North,-999,0.0,-999.0,94,-99.99,,,-99.99,Acu-Link.com,2013-06-01 06:34:00,
2013-06-01 02:49:00,66.7,65.2,29.92,North,-999,0.0,-999.0,95,-99.99,,,-99.99,Acu-Link.com,2013-06-01 06:49:00,
2013-06-01 03:04:00,66.1,64.9,29.92,North,-999,0.0,-999.0,96,-99.99,,,-99.99,Acu-Link.com,2013-06-01 07:04:00,
2013-06-01 03:19:00,65.5,64.6,29.93,North,-999,0.0,-999.0,97,-99.99,,,-99.99,Acu-Link.com,2013-06-01 07:19:00,
2013-06-01 03:34:00,65.2,64.3,29.92,North,-999,0.0,-999.0,97,-99.99,,,-99.99,Acu-Link.com,2013-06-01 07:34:00,
2013-06-01 03:50:00,64.9,64.0,29.92,North,-999,0.0,-999.0,97,-99.99,,,-99.99,Acu-Link.com,2013-06-01 07:50:00,
2013-06-01 04:05:00,65.2,64.6,29.92,North,-999,0.0,-999.0,98,-99.99,,,-99.99,Acu-Link.com,2013-06-01 08:05:00,
2013-06-01 04:21:00,65.3,64.7,29.92,North,-999,0.0,-999.0,98,-99.99,,,-99.99,Acu-Link.com,2013-06-01 08:21:00,
2013-06-01 04:36:00,65.4,65.1,29.92,North,-999,0.0,-999.0,99,-99.99,,,-99.99,Acu-Link.com,2013-06-01 08:36:00,
2013-06-01 04:51:00,64.1,63.8,29.92,North,-999,0.0,-999.0,99,-99.99,,,-99.99,Acu-Link.com,2013-06-01 08:51:00,
2013-06-01 05:06:00,63.9,63.6,29.93,North,-999,0.0,-999.0,99,-99.99,,,-99.99,Acu-Link.com,2013-06-01 09:06:00,
2013-06-01 05:21:00,63.6,63.3,29.93,North,-999,0.0,-999.0,99,-99.99,,,-99.99,Acu-Link.com,2013-06-01 09:21:00,
2013-06-01 05:37:00,63.7,63.4,29.93,North,-999,0.0,-999.0,99,-99.99,,,-99.99,Acu-Link.com,2013-06-01 09:37:00,
2013-06-01 05:52:00,63.6,63.3,29.92,North,-999,0.0,-999.0,99,-99.99,,,-99.99,Acu-Link.com,2013-06-01 09:52:00,
2013-06-01 06:07:00,63.9,63.6,29.93,North,-999,0.0,-999.0,99,-99.99,,,-99.99,Acu-Link.com,2013-06-01 10:07:00,
2013-06-01 06:23:00,65.1,64.8,29.93,North,-999,0.0,-999.0,99,-99.99,,,-99.99,Acu-Link.com,2013-06-01 10:23:00,
2013-06-01 06:38:00,64.8,64.5,29.94,North,-999,1.6,-999.0,99,-99.99,,,-99.99,Acu-Link.com,2013-06-01 10:38:00,
2013-06-01 06:53:00,65.6,65.3,29.93,North,-999,0.0,-999.0,99,-99.99,,,-99.99,Acu-Link.com,2013-06-01 10:53:00,
2013-06-01 07:09:00,67.0,66.7,29.92,North,-999,0.0,-999.0,99,-99.99,,,-99.99,Acu-Link.com,2013-06-01 11:09:00,
2013-06-01 07:24:00,68.2,67.9,29.93,North,-999,0.0,-999.0,99,-99.99,,,-99.99,Acu-Link.com,2013-06-01 11:24:00,
2013-06-01 07:39:00,69.4,68.5,29.93,North,-999,0.0,-999.0,97,-99.99,,,-99.99,Acu-Link.com,2013-06-01 11:39:00,
2013-06-01 07:55:00,70.7,69.2,29.94,North,-999,0.0,-999.0,95,-99.99,,,-99.99,Acu-Link.com,2013-06-01 11:55:00,
2013-06-01 08:10:00,72.6,69.5,29.94,North,-999,0.0,-999.0,90,-99.99,,,-99.99,Acu-Link.com,2013-06-01 12:10:00,
2013-06-01 08:25:00,74.0,69.5,29.93,North,-999,0.0,-999.0,86,-99.99,,,-99.99,Acu-Link.com,2013-06-01 12:25:00,
2013-06-01 08:40:00,75.7,69.8,29.94,North,-999,1.6,-999.0,82,-99.99,,,-99.99,Acu-Link.com,2013-06-01 12:40:00,
2013-06-01 08:55:00,77.5,70.8,29.94,North,-999,0.0,-999.0,80,-99.99,,,-99.99,Acu-Link.com,2013-06-01 12:55:00,
2013-06-01 09:11:00,79.7,69.4,29.93,North,-999,1.6,-999.0,71,-99.99,,,-99.99,Acu-Link.com,2013-06-01 13:11:00,
2013-06-01 09:26:00,81.5,71.2,29.93,North,-999,3.2,-999.0,71,-99.99,,,-99.99,Acu-Link.com,2013-06-01 13:26:00,
2013-06-01 09:41:00,84.0,71.8,29.93,North,-999,1.6,-999.0,67,-99.99,,,-99.99,Acu-Link.com,2013-06-01 13:41:00,
2013-06-01 09:57:00,87.1,68.9,29.93,North,-999,1.6,-999.0,55,-99.99,,,-99.99,Acu-Link.com,2013-06-01 13:57:00,
2013-06-01 10:12:00,88.7,68.8,29.93,North,-999,1.6,-999.0,52,-99.99,,,-99.99,Acu-Link.com,2013-06-01 14:12:00,
2013-06-01 10:27:00,90.2,70.2,29.93,North,-999,1.6,-999.0,52,-99.99,,,-99.99,Acu-Link.com,2013-06-01 14:27:00,
2013-06-01 10:42:00,91.0,69.1,29.92,North,-999,3.2,-999.0,49,-99.99,,,-99.99,Acu-Link.com,2013-06-01 14:42:00,
2013-06-01 10:57:00,91.3,69.4,29.91,North,-999,1.6,-999.0,49,-99.99,,,-99.99,Acu-Link.com,2013-06-01 14:57:00,
2013-06-01 11:13:00,92.7,67.5,29.91,North,-999,1.6,-999.0,44,-99.99,,,-99.99,Acu-Link.com,2013-06-01 15:13:00,
2013-06-01 11:28:00,92.2,68.4,29.91,North,-999,4.8,-999.0,46,-99.99,,,-99.99,Acu-Link.com,2013-06-01 15:28:00,
2013-06-01 11:43:00,93.6,69.0,29.90,North,-999,4.8,-999.0,45,-99.99,,,-99.99,Acu-Link.com,2013-06-01 15:43:00,
2013-06-01 11:58:00,94.7,68.7,29.90,North,-999,3.2,-999.0,43,-99.99,,,-99.99,Acu-Link.com,2013-06-01 15:58:00,
2013-06-01 12:13:00,94.3,67.6,29.90,North,-999,4.8,-999.0,42,-99.99,,,-99.99,Acu-Link.com,2013-06-01 16:13:00,
2013-06-01 12:30:00,94.9,69.5,29.89,North,-999,3.2,-999.0,44,-99.99,,,-99.99,Acu-Link.com,2013-06-01 16:30:00,
2013-06-01 12:45:00,95.3,69.9,29.88,North,-999,1.6,-999.0,44,-99.99,,,-99.99,Acu-Link.com,2013-06-01 16:45:00,
2013-06-01 13:07:00,95.2,70.5,29.87,North,-999,4.8,-999.0,45,-99.99,,,-99.99,Acu-Link.com,2013-06-01 17:07:00,
2013-06-01 13:23:00,96.3,66.5,29.86,North,-999,1.6,-999.0,38,-99.99,,,-99.99,Acu-Link.com,2013-06-01 17:23:00,
2013-06-01 13:38:00,95.8,65.3,29.86,North,-999,1.6,-999.0,37,-99.99,,,-99.99,Acu-Link.com,2013-06-01 17:38:00,
2013-06-01 13:53:00,95.9,67.6,29.86,North,-999,3.2,-999.0,40,-99.99,,,-99.99,Acu-Link.com,2013-06-01 17:53:00,
2013-06-01 14:09:00,96.3,64.1,29.86,North,-999,1.6,-999.0,35,-99.99,,,-99.99,Acu-Link.com,2013-06-01 18:09:00,
2013-06-01 14:25:00,96.0,65.5,29.85,North,-999,4.8,-999.0,37,-99.99,,,-99.99,Acu-Link.com,2013-06-01 18:25:00,
2013-06-01 14:40:00,96.5,62.6,29.86,North,-999,3.2,-999.0,33,-99.99,,,-99.99,Acu-Link.com,2013-06-01 18:40:00,
2013-06-01 14:56:00,96.6,62.7,29.85,North,-999,4.8,-999.0,33,-99.99,,,-99.99,Acu-Link.com,2013-06-01 18:56:00,
2013-06-01 15:11:00,96.8,63.7,29.84,North,-999,3.2,-999.0,34,-99.99,,,-99.99,Acu-Link.com,2013-06-01 19:11:00,
2013-06-01 15:26:00,95.1,62.3,29.85,North,-999,6.4,-999.0,34,-99.99,,,-99.99,Acu-Link.com,2013-06-01 19:26:00,
2013-06-01 15:42:00,95.3,60.7,29.85,North,-999,4.8,-999.0,32,-99.99,,,-99.99,Acu-Link.com,2013-06-01 19:42:00,
2013-06-01 15:57:00,95.5,66.5,29.85,North,-999,6.4,-999.0,39,-99.99,,,-99.99,Acu-Link.com,2013-06-01 19:57:00,
2013-06-01 16:12:00,93.2,64.5,29.84,North,-999,4.8,-999.0,39,-99.99,,,-99.99,Acu-Link.com,2013-06-01 20:12:00,
2013-06-01 16:28:00,91.5,62.3,29.83,North,-999,4.8,-999.0,38,-99.99,,,-99.99,Acu-Link.com,2013-06-01 20:28:00,
2013-06-01 16:44:00,90.8,61.6,29.83,North,-999,3.2,-999.0,38,-99.99,,,-99.99,Acu-Link.com,2013-06-01 20:44:00,
2013-06-01 16:59:00,89.9,61.6,29.82,North,-999,3.2,-999.0,39,-99.99,,,-99.99,Acu-Link.com,2013-06-01 20:59:00,
2013-06-01 17:14:00,89.8,61.5,29.82,North,-999,1.6,-999.0,39,-99.99,,,-99.99,Acu-Link.com,2013-06-01 21:14:00,
2013-06-01 17:29:00,89.6,62.0,29.81,North,-999,1.6,-999.0,40,-99.99,,,-99.99,Acu-Link.com,2013-06-01 21:29:00,
2013-06-01 17:45:00,89.0,60.8,29.82,North,-999,4.8,-999.0,39,-99.99,,,-99.99,Acu-Link.com,2013-06-01 21:45:00,
2013-06-01 18:00:00,88.5,63.8,29.81,North,-999,0.0,-999.0,44,-99.99,,,-99.99,Acu-Link.com,2013-06-01 22:00:00,
2013-06-01 18:15:00,87.2,62.6,29.82,North,-999,3.2,-999.0,44,-99.99,,,-99.99,Acu-Link.com,2013-06-01 22:15:00,
2013-06-01 18:31:00,86.7,64.6,29.81,North,-999,0.0,-999.0,48,-99.99,,,-99.99,Acu-Link.com,2013-06-01 22:31:00,
2013-06-01 18:46:00,84.8,64.6,29.81,North,-999,0.0,-999.0,51,-99.99,,,-99.99,Acu-Link.com,2013-06-01 22:46:00,
2013-06-01 19:01:00,83.5,64.0,29.82,North,-999,0.0,-999.0,52,-99.99,,,-99.99,Acu-Link.com,2013-06-01 23:01:00,
2013-06-01 19:16:00,83.4,64.4,29.82,North,-999,1.6,-999.0,53,-99.99,,,-99.99,Acu-Link.com,2013-06-01 23:16:00,
2013-06-01 19:31:00,82.6,65.3,29.82,North,-999,0.0,-999.0,56,-99.99,,,-99.99,Acu-Link.com,2013-06-01 23:31:00,
2013-06-01 19:47:00,82.1,65.3,29.83,North,-999,1.6,-999.0,57,-99.99,,,-99.99,Acu-Link.com,2013-06-01 23:47:00,
2013-06-01 20:02:00,81.2,65.0,29.83,North,-999,1.6,-999.0,58,-99.99,,,-99.99,Acu-Link.com,2013-06-02 00:02:00,
2013-06-01 20:17:00,79.9,64.8,29.83,North,-999,0.0,-999.0,60,-99.99,,,-99.99,Acu-Link.com,2013-06-02 00:17:00,
2013-06-01 20:33:00,78.6,66.3,29.82,North,-999,0.0,-999.0,66,-99.99,,,-99.99,Acu-Link.com,2013-06-02 00:33:00,
2013-06-01 20:48:00,77.2,66.2,29.83,North,-999,0.0,-999.0,69,-99.99,,,-99.99,Acu-Link.com,2013-06-02 00:48:00,
2013-06-01 21:03:00,78.6,66.3,29.83,North,-999,1.6,-999.0,66,-99.99,,,-99.99,Acu-Link.com,2013-06-02 01:03:00,
2013-06-01 21:18:00,78.7,66.4,29.84,North,-999,1.6,-999.0,66,-99.99,,,-99.99,Acu-Link.com,2013-06-02 01:18:00,
2013-06-01 21:33:00,78.4,64.3,29.84,North,-999,1.6,-999.0,62,-99.99,,,-99.99,Acu-Link.com,2013-06-02 01:33:00,
2013-06-01 21:49:00,78.3,63.7,29.84,North,-999,1.6,-999.0,61,-99.99,,,-99.99,Acu-Link.com,2013-06-02 01:49:00,
2013-06-01 22:04:00,77.5,63.9,29.84,North,-999,1.6,-999.0,63,-99.99,,,-99.99,Acu-Link.com,2013-06-02 02:04:00,
2013-06-01 22:19:00,77.1,63.5,29.84,North,-999,1.6,-999.0,63,-99.99,,,-99.99,Acu-Link.com,2013-06-02 02:19:00,
2013-06-01 22:34:00,76.6,64.4,29.85,North,-999,1.6,-999.0,66,-99.99,,,-99.99,Acu-Link.com,2013-06-02 02:34:00,
2013-06-01 22:49:00,76.9,65.9,29.85,North,-999,3.2,-999.0,69,-99.99,,,-99.99,Acu-Link.com,2013-06-02 02:49:00,
2013-06-01 23:05:00,76.7,66.6,29.84,North,-999,1.6,-999.0,71,-99.99,,,-99.99,Acu-Link.com,2013-06-02 03:05:00,
2013-06-01 23:20:00,75.9,67.0,29.84,North,-999,1.6,-999.0,74,-99.99,,,-99.99,Acu-Link.com,2013-06-02 03:20:00,
2013-06-01 23:35:00,75.4,67.3,29.84,North,-999,1.6,-999.0,76,-99.99,,,-99.99,Acu-Link.com,2013-06-02 03:35:00,
2013-06-01 23:50:00,74.8,67.8,29.84,North,-999,3.2,-999.0,79,-99.99,,,-99.99,Acu-Link.com,2013-06-02 03:50:00,